This demonstration page uses our WeatherBlox Daily Observations layout. Learn more.

Left ArrowRight Arrow

39.51506, -84.39828

Hourly Observations for January 21, 2015

Temp ( °F °C ) Dew Point ( °F °C ) Humidity (%) Winds ( mph kmh ) Pressure ( in mb ) Visibility ( mi km ) Precip ( " mm )
12:15 am 00:15 Cloudy 40 4.4 33 0.3 75 75 Calm 29.97 1015 10 16 0.00 0.00
12:35 am 00:35 Cloudy 40 4.7 33 0.4 74 74 Calm 29.97 1015 10 16 0.00 0.00
12:55 am 00:55 Cloudy 39 4 33 0.3 77 77 Calm 29.97 1015 10 16 0.00 0.00
1:15 am 01:15 Cloudy 39 4 33 0.4 78 78 Calm 29.97 1015 10 16 0.00 0.00
1:35 am 01:35 Cloudy 37 3 32 0 81 81 Calm 30.00 1016 10 16 0.00 0.00
1:55 am 01:55 Cloudy 39 4 34 0.9 80 80 Calm 29.97 1015 10 16 0.00 0.00
2:15 am 02:15 Cloudy 40 4.5 34 1.1 79 79 Calm 29.97 1015 10 16 0.00 0.00
2:35 am 02:35 Cloudy 40 4.7 34 1.2 78 78 Calm 30.00 1016 10 16 0.00 0.00
2:55 am 02:55 Cloudy 40 4.7 34 1.1 78 78 ESE 3 6 29.97 1015 10 16 0.00 0.00
4:15 am 04:15 Cloudy 39 4.1 34 1 80 80 W 7 11 30.00 1016 10 16 0.00 0.00
4:35 am 04:35 Cloudy 39 4 34 0.9 80 80 W 5 7 30.00 1016 7 11 0.00 0.00
4:55 am 04:55 Cloudy 39 4 34 1 81 81 W 6 9 30.00 1016 7 11 0.00 0.00
5:15 am 05:15 Cloudy with Haze 39 4 34 1.2 82 82 W 6 9 30.00 1016 5 8 0.00 0.00
5:35 am 05:35 Cloudy 39 4 34 1.3 83 83 WSW 3 6 30.00 1016 7 11 0.00 0.00
5:55 am 05:55 Cloudy 39 4 34 1.3 83 83 W 6 9 30.00 1016 7 11 0.00 0.00
6:15 am 06:15 Mostly Cloudy with Mist and Fog 37 3 33 0.3 83 83 W 6 9 30.03 1017 5 8 0.00 0.00
6:35 am 06:35 Mostly Cloudy with Haze 37 2.7 32 0.1 83 83 WSW 3 6 30.06 1018 5 8 0.00 0.00
6:55 am 06:55 Cloudy with Haze 37 2.6 32 0.1 84 84 SW 5 7 30.06 1018 5 8 0.00 0.00
7:15 am 07:15 Mostly Cloudy with Haze 37 2.6 32 0.1 84 84 WSW 6 9 30.06 1018 5 8 0.00 0.00
7:35 am 07:35 Mostly Cloudy with Mist and Fog 37 3 33 0.5 84 84 WSW 8 13 30.06 1018 5 8 0.00 0.00
7:55 am 07:55 Cloudy 38 3.2 33 0.6 83 83 WSW 8 13 30.06 1018 7 11 0.00 0.00
8:15 am 08:15 Cloudy 37 3 32 0.1 81 81 WSW 7 11 30.06 1018 7 11 0.00 0.00
8:35 am 08:35 Cloudy 39 3.8 33 0.5 79 79 WSW 9 15 30.09 1019 7 11 0.00 0.00
8:55 am 08:55 Cloudy 39 4 32 0.2 77 77 W 6 9 30.09 1019 10 16 0.00 0.00
9:15 am 09:15 Cloudy 39 4 32 0.2 77 77 W 8 13 30.09 1019 10 16 0.00 0.00
9:35 am 09:35 Cloudy 39 4 32 0 75 75 W 7 11 30.09 1019 10 16 0.00 0.00
9:55 am 09:55 Cloudy 39 4 32 0 75 75 WSW 7 11 30.09 1019 7 11 0.00 0.00
10:15 am 10:15 Cloudy 39 4 32 0 75 75 WSW 8 13 30.12 1020 7 11 0.00 0.00
10:35 am 10:35 Cloudy 39 4 32 0 75 75 WSW 7 11 30.12 1020 7 11 0.00 0.00
10:55 am 10:55 Cloudy 40 4.6 33 0.3 74 74 SW 7 11 30.09 1019 7 11 0.00 0.00
11:15 am 11:15 Cloudy 40 4.7 32 0.1 72 72 SW 8 13 30.09 1019 10 16 0.00 0.00
11:35 am 11:35 Cloudy 42 5.5 33 0.5 71 71 SW 8 13 30.09 1019 10 16 0.00 0.00
11:55 am 11:55 Cloudy 42 5.7 33 0.5 70 70 SW 10 17 30.09 1019 10 16 0.00 0.00
12:15 pm 12:15 Mostly Cloudy 45 7.1 34 1.1 66 66 SSW 13 20 30.06 1018 10 16 0.00 0.00
12:35 pm 12:35 Mostly Cloudy 44 6.8 33 0.3 64 64 SW 12 19 30.06 1018 10 16 0.00 0.00
12:55 pm 12:55 Mostly Cloudy 49 9.6 35 1.7 58 58 SW 13 20 30.06 1018 10 16 0.00 0.00
1:15 pm 13:15 Cloudy 49 9.4 35 1.7 59 59 SW 7 11 30.06 1018 10 16 0.00 0.00
1:35 pm 13:35 Cloudy 49 9.6 34 1.1 56 56 WSW 10 17 30.03 1017 10 16 0.00 0.00
1:55 pm 13:55 Cloudy 49 9.6 32 0 52 52 SW 13 20 30.03 1017 10 16 0.00 0.00
2:15 pm 14:15 Cloudy 49 9.6 31 -0.4 50 50 WSW 12 19 30.03 1017 10 16 0.00 0.00
2:35 pm 14:35 Cloudy 49 9.6 31 -0.8 49 49 W 16 26 30.03 1017 10 16 0.00 0.00
2:55 pm 14:55 Cloudy 49 9.6 31 -0.8 49 49 WSW 10 17 30.03 1017 10 16 0.00 0.00
3:15 pm 15:15 Cloudy 49 9.6 29 -1.4 47 47 W 13 20 30.03 1017 10 16 0.00 0.00
3:35 pm 15:35 Cloudy 49 9.6 31 -0.8 49 49 W 13 20 30.03 1017 10 16 0.00 0.00
3:55 pm 15:55 Cloudy 49 9.5 32 -0.1 51 51 W 10 17 30.06 1018 10 16 0.00 0.00
4:15 pm 16:15 Cloudy 47 8.2 32 0.2 57 57 W 9 15 30.06 1018 10 16 0.00 0.00
4:35 pm 16:35 Cloudy 47 8.2 33 0.7 60 60 WNW 9 15 30.06 1018 10 16 0.00 0.00
4:55 pm 16:55 Cloudy 44 6.9 31 -0.8 58 58 WNW 10 17 30.06 1018 10 16 0.00 0.00
5:15 pm 17:15 Cloudy 44 6.5 30 -1.2 58 58 WNW 9 15 30.09 1019 10 16 0.00 0.00
5:35 pm 17:35 Mostly Cloudy 43 6.1 29 -1.5 59 59 WNW 9 15 30.09 1019 10 16 0.00 0.00
5:55 pm 17:55 Mostly Cloudy 42 5.6 28 -2.2 58 58 WNW 10 17 30.12 1020 10 16 0.00 0.00
6:15 pm 18:15 Partly Cloudy 40 4.7 28 -2.1 62 62 WNW 10 17 30.12 1020 10 16 0.00 0.00
6:35 pm 18:35 Clear 39 4.1 28 -2.5 63 63 WNW 10 17 30.15 1021 10 16 0.00 0.00
6:55 pm 18:55 Clear 39 4 27 -2.6 62 62 WNW 12 19 30.18 1022 10 16 0.00 0.00
7:15 pm 19:15 Clear 37 2.6 26 -3.2 66 66 W 7 11 30.18 1022 10 16 0.00 0.00
7:35 pm 19:35 Clear 37 2.6 27 -3 67 67 W 7 11 30.21 1023 10 16 0.00 0.00
7:55 pm 19:55 Clear 37 2.6 27 -2.6 69 69 W 8 13 30.21 1023 10 16 0.00 0.00
8:15 pm 20:15 Clear 37 2.6 28 -2.3 70 70 W 6 9 30.21 1023 10 16 0.00 0.00
8:35 pm 20:35 Clear 36 2 27 -2.7 71 71 WNW 3 6 30.21 1023 10 16 0.00 0.00
8:55 pm 20:55 Partly Cloudy 35 1.4 27 -2.9 73 73 Calm 30.21 1023 10 16 0.00 0.00
9:15 pm 21:15 Partly Cloudy 34 1.2 27 -2.8 75 75 SSW 3 6 30.21 1023 10 16 0.00 0.00
9:35 pm 21:35 Partly Cloudy 34 1.2 27 -2.8 75 75 W 3 6 30.21 1023 10 16 0.00 0.00
9:55 pm 21:55 Partly Cloudy 34 1.2 28 -2.5 77 77 Calm 30.21 1023 10 16 0.00 0.00
10:15 pm 22:15 Partly Cloudy 34 1.2 27 -2.9 74 74 SW 5 7 30.24 1024 10 16 0.00 0.00
10:35 pm 22:35 Mostly Cloudy 34 1.2 28 -2.5 77 77 SW 5 7 30.24 1024 10 16 0.00 0.00
10:55 pm 22:55 Cloudy 35 1.9 29 -1.9 76 76 SW 6 9 30.24 1024 10 16 0.00 0.00
11:15 pm 23:15 Cloudy 37 2.6 30 -1 77 77 WSW 5 7 30.24 1024 10 16 0.00 0.00
11:35 pm 23:35 Cloudy 37 2.6 30 -1.3 76 76 WSW 5 7 30.24 1024 10 16 0.00 0.00
11:55 pm 23:55 Cloudy 37 2.6 30 -1.1 77 77 W 7 11 30.24 1024 10 16 0.00 0.00

Powered by AerisWeather